Location: ???????
(54.9567°N, 38.2836°E)
Time: 06:11:59
(UTC+00:00)

Thor Agena Rocket - Pass Details

Date: 14 April 2024
Orbit: 757 x 805 km, 99.1° (Epoch: 22 May)

Event Time Altitude Azimuth Distance (km) Brightness Sun altitude
Rises 01:16:10 0° 17° (NNE) 3,235 7.6 -9.8°
Reaches altitude 10° 01:18:29 10° 19° (NNE) 2,302 6.8 -9.5°
Maximum altitude 01:23:33 76° 106° (ESE) 786 3.7 -8.9°
Drops below altitude 10° 01:28:35 10° 192° (SSW) 2,286 5.6 -8.3°
Sets 01:30:52 0° 194° (SSW) 3,211 6.3 -8.0°
